{"data":{"norad_id":58698,"epoch":"2026-09-19T22:23:12.661152Z","epoch_age_seconds":67134,"freshness":"FRESH","line1":"1 58698U 24003A   26262.93278543  .00000047  00000+0  00000+0 0  9993","line2":"2 58698   0.0118 184.3674 0000450 267.6671 302.3280  1.00274345  8399","mean_motion":1.00274345,"eccentricity":4.5e-5,"inclination_deg":0.0118,"raan_deg":184.3674,"arg_perigee_deg":267.6671,"mean_anomaly_deg":302.328,"bstar":0,"rev_number":839,"period_min":1436.0602405331,"perigee_km":35783.979934884,"apogee_km":35787.774696172,"semimajor_km":42164.014315528,"source":"CELESTRAK","updated_at":"2026-09-20T09:00:35.335790Z"}}